Weather History for KPSX - July, 2013

Change the Weather History Date:

Saturday, July 20, 2013

  Actual Average Record
Temperature  
Mean Temperature 82 °F -  
Max Temperature 91 °F 89 °F 96 °F (1951)
Min Temperature 75 °F 76 °F 70 °F (1992)
Cooling Degree Days 18    
Growing Degree Days 32 (Base 50)    
Moisture  
Dew Point 73 °F    
Average Humidity 72    
Maximum Humidity 94    
Minimum Humidity 55    
Precipitation  
Precipitation 0.00 in - - ()
Sea Level Pressure  
Sea Level Pressure 29.94 in    
Wind  
Wind Speed 8 mph (SSE)    
Max Wind Speed 15 mph    
Max Gust Speed 23 mph    
Visibility 10 miles    
Events      
Averages and records for this station are not official NWS values.
T = Trace of Precipitation, MM = Missing Value Source: NWS Daily Summary

Daily Weather History Graph

Daily Weather History Graph

Search for Another Location

Airport or City:

Trip Planner

Search our weather history database for the weather conditions in past years. The results will help you decide how hot, cold, wet, or windy it might be!

Date:

Astronomy

Jul. 20, 2013 Rise Set
Actual Time 6:39 AM CDT 8:22 PM CDT
Civil Twilight 6:13 AM CDT 8:48 PM CDT
Nautical Twilight 5:42 AM CDT 9:20 PM CDT
Astronomical Twilight 5:08 AM CDT 9:53 PM CDT
Moon 6:28 PM CDT (7/20) 4:20 AM CDT (7/20)
Length of Visible Light 14h 35m
Length of Day
13h 43m
Waxing Gibbous, 94% of the Moon is Illuminated
Jul 20
Waxing Gibbous
Jul 22
Full
Jul 29
Last Quarter
Aug 6
New
Aug 14
First Quarter

Hourly Weather History & Observations

Time (CDT) Temp. Heat Index Dew Point Humidity Pressure Visibility Wind Dir Wind Speed Gust Speed Precip Events Conditions
12:53 AM 81.0 °F 86.7 °F 75.0 °F 82% 29.98 in 10.0 mi SSE 8.1 mph - N/A   Partly Cloudy
1:53 AM 81.0 °F 86.2 °F 73.9 °F 79% 29.97 in 10.0 mi SSE 6.9 mph - N/A   Clear
2:53 AM 80.1 °F 84.5 °F 73.9 °F 81% 29.96 in 10.0 mi SSE 5.8 mph - N/A   Clear
3:53 AM 79.0 °F - 73.9 °F 84% 29.95 in 10.0 mi ESE 3.5 mph - N/A   Clear
4:53 AM 79.0 °F - 73.9 °F 84% 29.95 in 10.0 mi ESE 3.5 mph - N/A   Clear
5:53 AM 75.9 °F - 73.0 °F 91% 29.95 in 10.0 mi East 4.6 mph - N/A   Clear
6:53 AM 75.0 °F - 72.0 °F 90% 29.96 in 7.0 mi NE 3.5 mph - N/A   Partly Cloudy
7:53 AM 75.9 °F - 73.9 °F 94% 29.96 in 9.0 mi NE 3.5 mph - N/A   Clear
8:53 AM 84.0 °F 90.2 °F 73.0 °F 69% 29.97 in 10.0 mi SSE 3.5 mph - N/A   Clear
9:53 AM 84.9 °F 90.7 °F 72.0 °F 65% 29.96 in 10.0 mi SSW 6.9 mph - N/A   Clear
10:53 AM 86.0 °F 91.5 °F 71.1 °F 61% 29.96 in 10.0 mi SSW 8.1 mph - N/A   Clear
11:53 AM 88.0 °F 95.6 °F 73.0 °F 61% 29.96 in 10.0 mi SSW 9.2 mph - N/A   Clear
12:53 PM 89.1 °F 97.0 °F 73.0 °F 59% 29.95 in 10.0 mi SE 12.7 mph - N/A   Clear
1:53 PM 89.1 °F 97.0 °F 73.0 °F 59% 29.94 in 10.0 mi South 11.5 mph - N/A   Clear
2:53 PM 90.0 °F 99.0 °F 73.9 °F 59% 29.92 in 10.0 mi SSE 15.0 mph - N/A   Clear
3:53 PM 90.0 °F 96.9 °F 72.0 °F 55% 29.91 in 10.0 mi SSE 15.0 mph 23.0 mph N/A   Clear
4:53 PM 89.1 °F 96.0 °F 72.0 °F 57% 29.91 in 10.0 mi SSE 15.0 mph 20.7 mph N/A   Clear
5:53 PM 89.1 °F 96.0 °F 72.0 °F 57% 29.89 in 10.0 mi SSE 13.8 mph - N/A   Clear
6:53 PM 87.1 °F 95.4 °F 73.9 °F 65% 29.88 in 10.0 mi SSE 13.8 mph - N/A   Partly Cloudy
7:53 PM 84.9 °F 91.4 °F 73.0 °F 67% 29.88 in 10.0 mi SSE 10.4 mph - N/A   Clear
8:53 PM 82.9 °F 90.2 °F 75.0 °F 77% 29.88 in 10.0 mi SSE 9.2 mph - N/A   Scattered Clouds
9:53 PM 82.9 °F 90.2 °F 75.0 °F 77% 29.90 in 10.0 mi SSE 13.8 mph - N/A   Partly Cloudy
10:53 PM 82.0 °F 87.9 °F 73.9 °F 76% 29.92 in 10.0 mi SSE 9.2 mph - N/A   Clear
11:53 PM 82.9 °F 89.4 °F 73.9 °F 74% 29.94 in 10.0 mi South 9.2 mph - N/A   Partly Cloudy